CW7625 Weather Reports


Display with metric or nautical units.
time (UTC)temp
F
wind
direction
speed
MPH
gust
MPH
rain 1hr
in
rain 24hr
in
rain mn
in
humidity
%
barometer
mb
20260906045104 81 223 0.0 0.0 0.00 0.00 0.00 80 1010.6
20260906043104 82 223 0.0 0.0 0.00 0.00 0.00 78 1010.4
20260906041104 82 223 0.0 0.0 0.00 0.00 0.00 77 1010.7
20260906040104 83 223 0.0 0.0 0.00 0.00 0.00 76 1010.7
20260906034104 83 223 0.0 0.0 0.00 0.00 0.00 75 1010.7
20260906033104 84 223 0.0 0.0 0.00 0.00 0.00 74 1010.7
20260906032104 84 223 0.0 0.0 0.00 0.00 0.00 73 1010.8
20260906031104 85 223 0.0 1.0 0.00 0.00 0.00 72 1010.9
20260906030104 85 223 0.0 3.0 0.00 0.00 0.00 71 1010.8
20260906025104 85 223 1.0 2.0 0.00 0.00 0.00 71 1010.5
20260906024104 85 223 0.0 3.0 0.00 0.00 0.00 71 1010.7
20260906023104 85 223 0.0 0.0 0.00 0.00 0.00 70 1010.7
20260906021104 87 223 0.0 1.0 0.00 0.00 0.00 66 1010.1
20260906020104 88 223 0.0 0.0 0.00 0.00 0.00 65 1010.1
20260906015104 89 223 0.0 3.0 0.00 0.00 0.00 63 1009.8
20260906014104 89 223 0.0 3.0 0.00 0.00 0.00 62 1009.7
20260906013104 89 223 0.0 6.0 0.00 0.00 0.00 61 1009.6
20260906012104 89 187 0.0 2.0 0.00 0.00 0.00 61 1009.6
20260906011104 90 187 1.0 1.0 0.00 0.00 0.00 61 1009.4
20260906005104 92 187 0.0 4.0 0.00 0.00 0.00 58 1009.1
20260906003104 93 217 0.0 5.0 0.00 0.00 0.00 55 1009.0
20260906002105 93 260 2.0 5.0 0.00 0.00 0.00 54 1008.8
20260906001104 93 58 0.0 1.0 0.00 0.00 0.00 53 1008.5
20260906000104 94 58 0.0 0.0 0.00 0.00 0.00 51 1008.6
20260905235104 95 58 0.0 0.0 0.00 0.00 0.00 50 1008.4
20260905234104 96 58 0.0 2.0 0.00 0.00 0.00 48 1008.5
20260905233104 97 59 1.0 4.0 0.00 0.00 0.00 46 1008.3
20260905232104 98 275 2.0 9.0 0.00 0.00 0.00 45 1008.4
20260905231105 99 107 3.0 3.0 0.00 0.00 0.00 46 1008.3
20260905230104 99 22 3.0 5.0 0.00 0.00 0.00 45 1008.2
20260905225104 100 21 2.0 7.0 0.00 0.00 0.00 43 1008.1
20260905224104 100 344 2.0 8.0 0.00 0.00 0.00 42 1008.0
20260905223105 100 55 5.0 8.0 0.00 0.00 0.00 41 1008.0
20260905222104 100 223 1.0 3.0 0.00 0.00 0.00 43 1008.0
20260905221105 100 224 1.0 5.0 0.00 0.00 0.00 41 1008.0
20260905220104 99 85 3.0 5.0 0.00 0.00 0.00 43 1008.0
20260905215104 99 225 1.0 7.0 0.00 0.00 0.00 43 1008.1
20260905214104 98 227 2.0 5.0 0.00 0.00 0.00 45 1008.1
20260905213104 98 113 4.0 8.0 0.00 0.00 0.00 46 1008.2
20260905212105 98 63 0.0 1.0 0.00 0.00 0.00 49 1008.3
20260905210105 99 90 3.0 6.0 0.00 0.00 0.00 44 1008.7
20260905205104 100 44 0.0 4.0 0.00 0.00 0.00 44 1008.7
20260905204104 100 38 2.0 4.0 0.00 0.00 0.00 47 1008.8
20260905203104 100 227 0.0 7.0 0.00 0.00 0.00 46 1008.9
20260905202104 100 302 5.0 5.0 0.00 0.00 0.00 45 1009.0
20260905200105 99 98 1.0 9.0 0.00 0.00 0.00 43 1009.5
20260905195104 99 34 1.0 4.0 0.00 0.00 0.00 47 1009.6
20260905194105 99 67 1.0 7.0 0.00 0.00 0.00 46 1009.7
20260905193104 99 25 3.0 6.0 0.00 0.00 0.00 47 1009.8
20260905192105 99 58 2.0 7.0 0.00 0.00 0.00 48 1010.0
20260905191104 98 105 7.0 8.0 0.00 0.00 0.00 48 1010.4
20260905190105 98 254 0.0 6.0 0.00 0.00 0.00 48 1010.5
20260905185104 99 60 1.0 5.0 0.00 0.00 0.00 47 1010.7
20260905184104 98 233 3.0 4.0 0.00 0.00 0.00 47 1010.9
20260905183104 98 213 1.0 4.0 0.00 0.00 0.00 46 1011.1
20260905182104 98 222 1.0 4.0 0.00 0.00 0.00 47 1011.2
20260905181105 99 183 2.0 7.0 0.00 0.00 0.00 45 1011.3
20260905180105 99 225 3.0 6.0 0.00 0.00 0.00 46 1011.4
20260905175104 98 68 1.0 8.0 0.00 0.00 0.00 49 1011.4
20260905174104 98 76 2.0 9.0 0.00 0.00 0.00 47 1011.6
20260905173105 97 78 3.0 5.0 0.00 0.00 0.00 48 1011.6
20260905172105 97 320 2.0 5.0 0.00 0.00 0.00 51 1011.8
20260905171104 97 224 4.0 7.0 0.00 0.00 0.00 50 1012.0
20260905170105 96 116 2.0 8.0 0.00 0.00 0.00 53 1012.0
20260905165104 96 246 1.0 10.0 0.00 0.00 0.00 52 1012.1
20260905164104 95 63 5.0 8.0 0.00 0.00 0.00 54 1012.2
20260905163105 95 48 3.0 9.0 0.00 0.00 0.00 55 1012.4
20260905162105 94 58 2.0 8.0 0.00 0.00 0.00 56 1012.4
20260905161105 94 300 1.0 5.0 0.00 0.00 0.00 59 1012.5
20260905160105 94 300 2.0 4.0 0.00 0.00 0.00 58 1012.5
20260905155105 93 211 0.0 5.0 0.00 0.00 0.00 60 1012.7
20260905154105 92 280 3.0 6.0 0.00 0.00 0.00 62 1012.8
20260905153105 92 291 1.0 7.0 0.00 0.00 0.00 62 1012.9
20260905152104 92 290 3.0 5.0 0.00 0.00 0.00 60 1012.7
20260905151105 92 298 0.0 3.0 0.00 0.00 0.00 61 1012.6
20260905150105 91 342 0.0 5.0 0.00 0.00 0.00 64 1012.6
20260905145105 90 194 1.0 2.0 0.00 0.00 0.00 66 1012.6
20260905144105 88 194 2.0 3.0 0.00 0.00 0.00 69 1012.5
20260905143105 87 284 0.0 5.0 0.00 0.00 0.00 69 1012.4
20260905141105 86 78 0.0 2.0 0.00 0.00 0.00 74 1012.4
20260905140105 84 78 0.0 3.0 0.00 0.00 0.00 76 1012.5
20260905134105 83 165 0.0 0.0 0.00 0.00 0.00 78 1012.4
20260905133105 82 165 0.0 0.0 0.00 0.00 0.00 80 1012.3
20260905132105 80 165 0.0 0.0 0.00 0.00 0.00 85 1012.2
20260905130105 76 165 0.0 0.0 0.00 0.00 0.00 89 1012.2
20260905125105 75 165 0.0 0.0 0.00 0.00 0.00 90 1012.3
20260905124105 73 165 0.0 0.0 0.00 0.00 0.00 91 1012.0
20260905123105 72 165 0.0 0.0 0.00 0.00 0.00 91 1012.0
20260905121105 72 165 0.0 0.0 0.00 0.00 0.00 90 1012.2
20260905120105 72 165 0.0 0.0 0.00 0.00 0.00 90 1012.2
20260905115105 72 165 0.0 0.0 0.00 0.00 0.00 90 1012.1
20260905114105 72 165 0.0 0.0 0.00 0.00 0.00 90 1012.0
20260905113105 72 165 0.0 0.0 0.00 0.00 0.00 90 1011.9
20260905111105 72 165 0.0 0.0 0.00 0.00 0.00 90 1012.0
20260905110105 73 165 0.0 0.0 0.00 0.00 0.00 89 1012.0
20260905105105 73 165 0.0 0.0 0.00 0.00 0.00 89 1012.0
20260905104105 73 165 0.0 0.0 0.00 0.00 0.00 89 1011.9
20260905102105 73 165 0.0 0.0 0.00 0.00 0.00 89 1011.8
20260905101105 73 165 0.0 0.0 0.00 0.00 0.00 89 1011.8
20260905100105 73 165 0.0 0.0 0.00 0.00 0.00 89 1011.7
20260905095105 73 165 0.0 0.0 0.00 0.00 0.00 88 1011.6
20260905094105 74 165 0.0 0.0 0.00 0.00 0.00 88 1011.5
20260905093105 74 165 0.0 0.0 0.00 0.00 0.00 88 1011.5
20260905092105 74 165 0.0 0.0 0.00 0.00 0.00 88 1011.5
20260905091105 74 165 0.0 0.0 0.00 0.00 0.00 88 1011.5
20260905090105 74 165 0.0 0.0 0.00 0.00 0.00 88 1011.5
20260905085105 74 165 0.0 0.0 0.00 0.00 0.00 87 1011.4
20260905084105 75 165 0.0 0.0 0.00 0.00 0.00 87 1011.3
20260905083105 75 165 0.0 0.0 0.00 0.00 0.00 87 1011.2
20260905082105 75 165 0.0 0.0 0.00 0.00 0.00 87 1011.2
20260905081105 75 165 0.0 0.0 0.00 0.00 0.00 87 1011.2
20260905080105 75 165 0.0 0.0 0.00 0.00 0.00 87 1011.3
20260905075105 75 165 0.0 0.0 0.00 0.00 0.00 86 1011.2
20260905074105 75 165 0.0 0.0 0.00 0.00 0.00 86 1011.3
20260905072105 76 165 0.0 0.0 0.00 0.00 0.00 85 1011.5
20260905070105 76 165 0.0 1.0 0.00 0.00 0.00 85 1011.5
20260905065105 76 165 0.0 0.0 0.00 0.00 0.00 85 1011.6
20260905064105 76 165 0.0 0.0 0.00 0.00 0.00 85 1011.6
20260905062105 77 165 0.0 0.0 0.00 0.00 0.00 83 1011.5
20260905061106 77 165 0.0 0.0 0.00 0.00 0.00 84 1011.5
20260905060105 77 165 0.0 0.0 0.00 0.00 0.00 83 1011.4
20260905055106 78 165 0.0 0.0 0.00 0.00 0.00 83 1011.4
20260905054105 78 165 0.0 1.0 0.00 0.00 0.00 83 1011.4
20260905053105 78 165 0.0 0.0 0.00 0.00 0.00 84 1011.4
20260905052106 77 165 0.0 0.0 0.00 0.00 0.00 83 1011.4
20260905051105 77 165 0.0 0.0 0.00 0.00 0.00 82 1011.4
20260905050105 78 165 0.0 0.0 0.00 0.00 0.00 81 1011.4